Location: Buckland
(65.9785°N, 161.1281°W)
Time: 15:12:19
(UTC+00:00)

Transit 4A - Pass Details

Date: 06 October 2022
Orbit: 871 x 972 km, 66.8° (Epoch: 29 November)

Event Time Altitude Azimuth Distance (km) Brightness Sun altitude
Exits shadow 09:20:33 25° 76° (ENE) 1,752 9.2 -27.9°
Drops below altitude 10° 09:23:00 10° 64° (ENE) 2,566 10.3 -28.0°
Sets 09:25:33 0° 58° (ENE) 3,497 11.1 -28.1°
